| time (UTC) | temp F | wind direction | speed MPH | gust MPH | rain 1hr in | rain 24hr in | rain mn in | humidity % | barometer mb |
| 20260506102140 | 49 | 337 | 0.0 | 0.0 | 0.00 | 0.61 | 0.00 | 90 | 1002.9 |
| 20260506101639 | 49 | 315 | 0.0 | 0.0 | 0.00 | 0.61 | 0.00 | 90 | 1002.9 |
| 20260506101139 | 49 | 337 | 0.0 | 0.0 | 0.00 | 0.61 | 0.00 | 90 | 1002.8 |
| 20260506100639 | 49 | 292 | 0.0 | 0.0 | 0.00 | 0.61 | 0.00 | 90 | 1002.7 |
| 20260506100139 | 50 | 0 | 0.0 | 0.0 | 0.00 | 0.61 | 0.00 | 90 | 1002.7 |
| 20260506095638 | 50 | 337 | 0.0 | 0.0 | 0.00 | 0.61 | 0.00 | 90 | 1002.7 |
| 20260506095138 | 50 | 22 | 0.0 | 0.0 | 0.00 | 0.61 | 0.00 | 89 | 1002.6 |
| 20260506094638 | 50 | 337 | 0.0 | 0.0 | 0.00 | 0.61 | 0.00 | 89 | 1002.5 |
| 20260506094138 | 51 | 315 | 0.0 | 0.0 | 0.00 | 0.61 | 0.00 | 90 | 1002.5 |
| 20260506093637 | 51 | 0 | 0.0 | 0.0 | 0.00 | 0.61 | 0.00 | 90 | 1002.4 |
| 20260506093137 | 51 | 337 | 0.0 | 0.0 | 0.00 | 0.61 | 0.00 | 90 | 1002.3 |
| 20260506092637 | 50 | 270 | 0.0 | 0.0 | 0.00 | 0.61 | 0.00 | 91 | 1002.4 |
| 20260506092136 | 50 | 315 | 0.0 | 0.0 | 0.00 | 0.61 | 0.00 | 90 | 1002.3 |
| 20260506091636 | 50 | 292 | 0.0 | 0.0 | 0.00 | 0.61 | 0.00 | 91 | 1002.3 |
| 20260506091136 | 50 | 292 | 0.0 | 0.0 | 0.00 | 0.61 | 0.00 | 91 | 1002.2 |
| 20260506090636 | 50 | 315 | 0.0 | 0.0 | 0.00 | 0.61 | 0.00 | 90 | 1002.2 |
| 20260506090135 | 50 | 337 | 0.0 | 0.0 | 0.00 | 0.61 | 0.00 | 90 | 1002.1 |
| 20260506085635 | 50 | 337 | 0.0 | 0.0 | 0.02 | 0.61 | 0.00 | 90 | 1002.1 |
| 20260506085135 | 50 | 315 | 0.0 | 0.0 | 0.02 | 0.61 | 0.00 | 91 | 1002.2 |
| 20260506084634 | 50 | 0 | 0.0 | 0.0 | 0.02 | 0.61 | 0.00 | 91 | 1002.1 |
| 20260506083634 | 50 | 0 | 0.0 | 0.0 | 0.02 | 0.61 | 0.00 | 91 | 1002.1 |
| 20260506083134 | 50 | 337 | 0.0 | 0.0 | 0.02 | 0.61 | 0.00 | 91 | 1002.1 |
| 20260506082633 | 49 | 337 | 0.0 | 0.0 | 0.02 | 0.61 | 0.00 | 91 | 1002.1 |
| 20260506082133 | 49 | 315 | 0.0 | 0.0 | 0.02 | 0.61 | 0.00 | 91 | 1002.1 |
| 20260506081633 | 49 | 337 | 0.0 | 0.0 | 0.02 | 0.61 | 0.00 | 91 | 1002.1 |
| 20260506081132 | 49 | 0 | 0.0 | 0.0 | 0.02 | 0.61 | 0.00 | 91 | 1002.1 |
| 20260506080132 | 49 | 0 | 0.0 | 0.0 | 0.00 | 0.59 | 0.00 | 91 | 1002.1 |
| 20260506073130 | 49 | 337 | 0.0 | 0.0 | 0.00 | 0.59 | 0.00 | 91 | 1001.9 |
| 20260506072630 | 49 | 0 | 0.0 | 0.0 | 0.00 | 0.59 | 0.00 | 91 | 1001.8 |
| 20260506072130 | 49 | 315 | 0.0 | 0.0 | 0.00 | 0.59 | 0.00 | 91 | 1001.9 |
| 20260506071629 | 49 | 0 | 0.0 | 0.0 | 0.00 | 0.59 | 0.00 | 91 | 1001.8 |
| 20260506071129 | 49 | 315 | 0.0 | 0.0 | 0.00 | 0.59 | 0.00 | 91 | 1001.8 |
| 20260506070629 | 48 | 337 | 0.0 | 0.0 | 0.00 | 0.59 | 0.00 | 91 | 1001.7 |
| 20260506070128 | 48 | 337 | 0.0 | 0.0 | 0.00 | 0.59 | 0.00 | 91 | 1001.7 |
| 20260506062126 | 48 | 292 | 0.0 | 0.0 | 0.00 | 0.59 | 0.00 | 91 | 1001.5 |
| 20260506061626 | 48 | 337 | 0.0 | 0.0 | 0.00 | 0.59 | 0.00 | 91 | 1001.4 |
| 20260506061126 | 48 | 292 | 0.0 | 0.0 | 0.00 | 0.59 | 0.00 | 91 | 1001.4 |
| 20260506060625 | 48 | 292 | 0.0 | 0.0 | 0.00 | 0.59 | 0.00 | 91 | 1001.3 |
| 20260506060125 | 49 | 270 | 0.0 | 0.0 | 0.00 | 0.59 | 0.00 | 91 | 1001.2 |
| 20260506051122 | 51 | 247 | 0.0 | 0.0 | 0.00 | 0.59 | 0.00 | 91 | 1001.2 |
| 20260506050622 | 51 | 225 | 0.0 | 0.0 | 0.00 | 0.59 | 0.00 | 91 | 1001.1 |
| 20260506050122 | 50 | 225 | 0.0 | 0.0 | 0.00 | 0.59 | 0.00 | 91 | 1001.0 |
| 20260506045121 | 50 | 247 | 0.0 | 0.0 | 0.00 | 0.59 | 0.00 | 91 | 1001.1 |
| 20260506044621 | 51 | 180 | 0.0 | 0.0 | 0.00 | 0.59 | 0.00 | 91 | 1001.1 |
| 20260506044121 | 50 | 157 | 0.0 | 0.0 | 0.00 | 0.59 | 0.00 | 91 | 1001.1 |
| 20260506043120 | 50 | 180 | 0.0 | 0.0 | 0.00 | 0.59 | 0.00 | 91 | 1001.1 |
| 20260506042119 | 50 | 180 | 0.0 | 0.0 | 0.00 | 0.59 | 0.00 | 91 | 1001.2 |
| 20260506041619 | 50 | 157 | 0.0 | 0.0 | 0.00 | 0.59 | 0.00 | 91 | 1001.1 |
| 20260506041119 | 50 | 180 | 0.0 | 0.0 | 0.00 | 0.59 | 0.00 | 91 | 1001.1 |
| 20260506040619 | 50 | 180 | 0.0 | 0.0 | 0.00 | 0.59 | 0.00 | 91 | 1001.2 |
| 20260506040118 | 50 | 157 | 0.0 | 0.0 | 0.00 | 0.59 | 0.00 | 91 | 1001.2 |
| 20260506035118 | 50 | 180 | 0.0 | 0.0 | 0.00 | 0.59 | 0.00 | 91 | 1001.2 |
| 20260506034618 | 50 | 180 | 0.0 | 0.0 | 0.00 | 0.59 | 0.00 | 91 | 1001.3 |
| 20260506034117 | 50 | 202 | 0.0 | 0.0 | 0.00 | 0.59 | 0.00 | 91 | 1001.3 |
| 20260506033617 | 50 | 157 | 0.0 | 0.0 | 0.00 | 0.59 | 0.00 | 91 | 1001.3 |
| 20260506033117 | 50 | 180 | 0.0 | 0.0 | 0.00 | 0.59 | 0.00 | 91 | 1001.4 |
| 20260506032616 | 50 | 157 | 0.0 | 0.0 | 0.00 | 0.59 | 0.00 | 91 | 1001.3 |
| 20260506032116 | 51 | 157 | 0.0 | 0.0 | 0.00 | 0.59 | 0.00 | 91 | 1001.4 |
| 20260506031616 | 51 | 180 | 0.0 | 0.0 | 0.00 | 0.59 | 0.00 | 91 | 1001.4 |
| 20260506031116 | 51 | 157 | 0.0 | 0.0 | 0.00 | 0.59 | 0.00 | 91 | 1001.3 |
| 20260506030615 | 51 | 180 | 0.0 | 0.0 | 0.00 | 0.59 | 0.00 | 91 | 1001.5 |
| 20260506030115 | 51 | 157 | 0.0 | 0.0 | 0.00 | 0.59 | 0.00 | 91 | 1001.6 |
| 20260506025615 | 51 | 157 | 0.0 | 0.0 | 0.00 | 0.59 | 0.00 | 91 | 1001.6 |
| 20260506025114 | 51 | 180 | 0.0 | 0.0 | 0.02 | 0.59 | 0.00 | 91 | 1001.7 |
| 20260506024620 | 51 | 157 | 0.0 | 0.0 | 0.02 | 0.59 | 0.00 | 91 | 1001.7 |
| 20260506024614 | 51 | 157 | 0.0 | 0.0 | 0.02 | 0.59 | 0.00 | 91 | 1001.7 |
| 20260506024114 | 51 | 157 | 0.0 | 0.0 | 0.04 | 0.59 | 0.00 | 91 | 1001.8 |
| 20260506023614 | 51 | 157 | 0.0 | 0.0 | 0.04 | 0.59 | 0.00 | 91 | 1001.7 |
| 20260506023113 | 51 | 180 | 0.0 | 0.0 | 0.04 | 0.59 | 0.00 | 91 | 1001.9 |
| 20260506022613 | 51 | 180 | 0.0 | 0.0 | 0.04 | 0.59 | 0.00 | 91 | 1001.7 |
| 20260506022113 | 51 | 157 | 0.0 | 0.0 | 0.04 | 0.59 | 0.00 | 91 | 1001.7 |
| 20260506021612 | 51 | 247 | 0.0 | 0.0 | 0.04 | 0.59 | 0.00 | 91 | 1001.8 |
| 20260506021112 | 51 | 157 | 0.0 | 0.0 | 0.04 | 0.59 | 0.00 | 91 | 1001.9 |
| 20260506020612 | 51 | 157 | 0.0 | 0.0 | 0.04 | 0.59 | 0.00 | 91 | 1001.9 |
| 20260506020235 | 51 | 157 | 0.0 | 0.0 | 0.04 | 0.59 | 0.00 | 91 | 1002.0 |
| 20260506020112 | 51 | 157 | 0.0 | 0.0 | 0.04 | 0.59 | 0.00 | 91 | 1002.0 |
| 20260506015611 | 51 | 157 | 0.0 | 0.0 | 0.06 | 0.59 | 0.00 | 91 | 1002.0 |
| 20260506015111 | 51 | 157 | 0.0 | 0.0 | 0.04 | 0.57 | 0.00 | 91 | 1002.1 |
| 20260506014611 | 51 | 157 | 0.0 | 0.0 | 0.04 | 0.55 | 0.00 | 91 | 1002.1 |
| 20260506014111 | 51 | 157 | 0.0 | 0.0 | 0.06 | 0.55 | 0.00 | 91 | 1002.1 |
| 20260506013610 | 51 | 135 | 0.0 | 0.0 | 0.08 | 0.55 | 0.00 | 91 | 1002.2 |
| 20260506013110 | 51 | 135 | 0.0 | 0.0 | 0.08 | 0.55 | 0.00 | 91 | 1002.2 |
| 20260506012615 | 51 | 135 | 0.0 | 0.0 | 0.08 | 0.55 | 0.00 | 91 | 1002.1 |
| 20260506012610 | 51 | 135 | 0.0 | 0.0 | 0.08 | 0.55 | 0.00 | 91 | 1002.1 |
| 20260506012109 | 51 | 135 | 0.0 | 0.0 | 0.08 | 0.55 | 0.00 | 91 | 1002.3 |
| 20260506011609 | 51 | 135 | 0.0 | 0.0 | 0.08 | 0.55 | 0.00 | 91 | 1002.2 |
| 20260506011109 | 51 | 90 | 0.0 | 0.0 | 0.08 | 0.55 | 0.00 | 91 | 1002.3 |
| 20260506010609 | 51 | 67 | 0.0 | 0.0 | 0.08 | 0.55 | 0.00 | 91 | 1002.4 |
| 20260506005608 | 51 | 67 | 0.0 | 0.0 | 0.08 | 0.52 | 0.00 | 91 | 1002.2 |
| 20260506005108 | 51 | 67 | 0.0 | 0.0 | 0.08 | 0.52 | 0.00 | 91 | 1002.4 |
| 20260506004607 | 51 | 67 | 0.0 | 0.0 | 0.06 | 0.50 | 0.00 | 91 | 1002.5 |
| 20260506004107 | 51 | 67 | 0.0 | 0.0 | 0.02 | 0.46 | 0.00 | 91 | 1002.4 |
| 20260506003607 | 51 | 67 | 0.0 | 0.0 | 0.02 | 0.46 | 0.00 | 91 | 1002.6 |
| 20260506003107 | 51 | 67 | 0.0 | 0.0 | 0.02 | 0.46 | 0.00 | 91 | 1002.6 |
| 20260506002606 | 51 | 67 | 0.0 | 0.0 | 0.02 | 0.46 | 0.00 | 91 | 1002.6 |
| 20260506002106 | 51 | 67 | 0.0 | 0.0 | 0.02 | 0.46 | 0.00 | 91 | 1002.7 |
| 20260506001606 | 51 | 67 | 0.0 | 0.0 | 0.02 | 0.46 | 0.00 | 91 | 1002.7 |
| 20260506001105 | 51 | 67 | 0.0 | 0.0 | 0.02 | 0.46 | 0.00 | 91 | 1002.8 |
| 20260506000605 | 51 | 67 | 0.0 | 0.0 | 0.02 | 0.46 | 0.00 | 91 | 1002.7 |
| 20260506000110 | 51 | 67 | 0.0 | 0.0 | 0.02 | 0.46 | 0.00 | 91 | 1002.9 |
| 20260506000105 | 51 | 67 | 0.0 | 0.0 | 0.02 | 0.46 | 0.00 | 91 | 1002.9 |
| 20260505235104 | 51 | 67 | 0.0 | 0.0 | 0.00 | 0.44 | 0.00 | 91 | 1002.9 |
| 20260505234604 | 51 | 67 | 0.0 | 0.0 | 0.00 | 0.44 | 0.00 | 91 | 1003.0 |
| 20260505234104 | 51 | 67 | 0.0 | 0.0 | 0.00 | 0.44 | 0.00 | 91 | 1002.9 |
| 20260505233603 | 51 | 67 | 0.0 | 0.0 | 0.02 | 0.44 | 0.00 | 91 | 1002.9 |
| 20260505233103 | 51 | 67 | 0.0 | 0.0 | 0.02 | 0.44 | 0.00 | 91 | 1002.8 |
| 20260505232603 | 51 | 67 | 0.0 | 0.0 | 0.02 | 0.44 | 0.00 | 90 | 1002.9 |
| 20260505232103 | 51 | 67 | 0.0 | 0.0 | 0.02 | 0.44 | 0.00 | 91 | 1002.9 |
| 20260505231602 | 51 | 67 | 0.0 | 0.0 | 0.02 | 0.44 | 0.00 | 91 | 1002.9 |
| 20260505231102 | 51 | 67 | 0.0 | 0.0 | 0.02 | 0.44 | 0.00 | 90 | 1002.9 |
| 20260505230602 | 51 | 67 | 0.0 | 0.0 | 0.02 | 0.44 | 0.00 | 90 | 1003.0 |
| 20260505225601 | 51 | 67 | 0.0 | 0.0 | 0.02 | 0.44 | 0.00 | 90 | 1003.3 |
| 20260505225101 | 51 | 67 | 0.0 | 0.0 | 0.02 | 0.44 | 0.00 | 90 | 1003.3 |
| 20260505224601 | 51 | 67 | 0.0 | 0.0 | 0.02 | 0.44 | 0.00 | 90 | 1003.4 |
| 20260505224100 | 51 | 67 | 0.0 | 0.0 | 0.02 | 0.44 | 0.00 | 90 | 1003.4 |
| 20260505223600 | 51 | 67 | 0.0 | 0.0 | 0.00 | 0.42 | 0.00 | 90 | 1003.4 |
| 20260505223100 | 51 | 67 | 0.0 | 0.0 | 0.00 | 0.42 | 0.00 | 90 | 1003.5 |
| 20260505222600 | 51 | 67 | 0.0 | 0.0 | 0.02 | 0.42 | 0.00 | 90 | 1003.3 |
| 20260505221559 | 51 | 67 | 0.0 | 0.0 | 0.02 | 0.42 | 0.00 | 90 | 1003.3 |
| 20260505220558 | 51 | 67 | 0.0 | 0.0 | 0.02 | 0.42 | 0.00 | 90 | 1003.4 |
| 20260505220058 | 51 | 67 | 0.0 | 0.0 | 0.02 | 0.42 | 0.00 | 90 | 1003.5 |
| 20260505215558 | 51 | 67 | 0.0 | 0.0 | 0.02 | 0.42 | 0.00 | 90 | 1003.3 |
| 20260505215058 | 51 | 67 | 0.0 | 0.0 | 0.02 | 0.42 | 0.00 | 90 | 1003.3 |
| 20260505214557 | 51 | 67 | 0.0 | 0.0 | 0.02 | 0.42 | 0.00 | 90 | 1003.4 |
| 20260505214057 | 51 | 67 | 0.0 | 0.0 | 0.04 | 0.42 | 0.00 | 90 | 1003.4 |
| 20260505213557 | 51 | 67 | 0.0 | 0.0 | 0.04 | 0.42 | 0.00 | 90 | 1003.5 |
| 20260505213056 | 51 | 67 | 0.0 | 0.0 | 0.04 | 0.42 | 0.00 | 89 | 1003.5 |
| 20260505212556 | 52 | 112 | 0.0 | 0.0 | 0.02 | 0.40 | 0.00 | 89 | 1003.5 |
| 20260505212056 | 52 | 180 | 0.0 | 0.0 | 0.02 | 0.40 | 0.00 | 89 | 1003.8 |
| 20260505211556 | 51 | 180 | 0.0 | 0.0 | 0.02 | 0.40 | 0.00 | 89 | 1003.6 |
| 20260505211055 | 51 | 180 | 0.0 | 0.0 | 0.02 | 0.40 | 0.00 | 89 | 1003.7 |
| 20260505210555 | 51 | 180 | 0.0 | 0.0 | 0.02 | 0.40 | 0.00 | 89 | 1003.7 |
| 20260505205554 | 51 | 180 | 0.0 | 0.0 | 0.02 | 0.40 | 0.00 | 89 | 1003.7 |
| 20260505205054 | 51 | 180 | 0.0 | 0.0 | 0.02 | 0.40 | 0.00 | 89 | 1003.7 |
| 20260505204054 | 51 | 180 | 0.0 | 0.0 | 0.00 | 0.38 | 0.00 | 89 | 1003.7 |
| 20260505203553 | 51 | 180 | 0.0 | 0.0 | 0.00 | 0.38 | 0.00 | 89 | 1003.8 |
| 20260505203053 | 51 | 180 | 0.0 | 0.0 | 0.00 | 0.38 | 0.00 | 89 | 1003.8 |
| 20260505202553 | 51 | 180 | 0.0 | 0.0 | 0.00 | 0.38 | 0.00 | 89 | 1003.8 |
| 20260505202053 | 51 | 180 | 0.0 | 0.0 | 0.00 | 0.38 | 0.00 | 89 | 1003.7 |
| 20260505201052 | 52 | 180 | 0.0 | 0.0 | 0.00 | 0.38 | 0.00 | 89 | 1003.7 |
| 20260505200552 | 52 | 180 | 0.0 | 0.0 | 0.00 | 0.38 | 0.00 | 89 | 1003.7 |
| 20260505200052 | 52 | 180 | 0.0 | 0.0 | 0.00 | 0.38 | 0.00 | 89 | 1003.7 |
| 20260505195551 | 52 | 180 | 0.0 | 0.0 | 0.00 | 0.38 | 0.00 | 89 | 1003.7 |
| 20260505194551 | 52 | 180 | 0.0 | 0.0 | 0.00 | 0.38 | 0.00 | 89 | 1003.8 |
| 20260505194050 | 52 | 180 | 0.0 | 0.0 | 0.00 | 0.38 | 0.00 | 89 | 1003.7 |
| 20260505193550 | 52 | 180 | 0.0 | 0.0 | 0.00 | 0.38 | 0.00 | 89 | 1003.7 |
| 20260505193050 | 52 | 180 | 0.0 | 0.0 | 0.00 | 0.38 | 0.00 | 89 | 1003.8 |
| 20260505192550 | 52 | 180 | 0.0 | 0.0 | 0.00 | 0.38 | 0.00 | 89 | 1003.8 |
| 20260505192049 | 52 | 180 | 0.0 | 0.0 | 0.00 | 0.38 | 0.00 | 89 | 1003.8 |
| 20260505191549 | 52 | 180 | 0.0 | 0.0 | 0.02 | 0.38 | 0.00 | 89 | 1003.7 |
| 20260505191049 | 52 | 180 | 0.0 | 0.0 | 0.02 | 0.38 | 0.00 | 89 | 1003.7 |
| 20260505190548 | 52 | 180 | 0.0 | 0.0 | 0.02 | 0.38 | 0.00 | 89 | 1003.6 |
| 20260505190048 | 52 | 180 | 0.0 | 0.0 | 0.02 | 0.38 | 0.00 | 89 | 1003.6 |
| 20260505185548 | 53 | 180 | 0.0 | 0.0 | 0.02 | 0.38 | 0.00 | 89 | 1003.5 |
| 20260505185048 | 53 | 180 | 0.0 | 0.0 | 0.02 | 0.38 | 0.00 | 89 | 1003.6 |
| 20260505184547 | 53 | 180 | 0.0 | 0.0 | 0.02 | 0.38 | 0.00 | 88 | 1003.7 |
| 20260505184047 | 53 | 180 | 0.0 | 0.0 | 0.02 | 0.38 | 0.00 | 88 | 1003.8 |
| 20260505183547 | 53 | 180 | 0.0 | 0.0 | 0.02 | 0.38 | 0.00 | 88 | 1003.8 |
| 20260505183047 | 53 | 180 | 0.0 | 0.0 | 0.02 | 0.38 | 0.00 | 88 | 1003.6 |
| 20260505182546 | 53 | 180 | 0.0 | 0.0 | 0.02 | 0.38 | 0.00 | 88 | 1003.7 |
| 20260505182046 | 53 | 180 | 0.0 | 0.0 | 0.02 | 0.36 | 0.00 | 88 | 1003.7 |
| 20260505181546 | 53 | 202 | 0.0 | 0.0 | 0.02 | 0.36 | 0.00 | 88 | 1003.7 |
| 20260505181045 | 53 | 202 | 0.0 | 0.0 | 0.02 | 0.36 | 0.00 | 88 | 1003.8 |
| 20260505180545 | 54 | 202 | 0.0 | 0.0 | 0.02 | 0.36 | 0.00 | 88 | 1003.8 |
| 20260505180045 | 54 | 202 | 0.0 | 0.0 | 0.02 | 0.36 | 0.00 | 88 | 1003.8 |
| 20260505175544 | 54 | 225 | 0.0 | 0.0 | 0.04 | 0.36 | 0.00 | 87 | 1003.7 |
| 20260505175044 | 54 | 225 | 0.0 | 0.0 | 0.04 | 0.36 | 0.00 | 87 | 1003.7 |
| 20260505174544 | 54 | 225 | 0.0 | 0.0 | 0.04 | 0.36 | 0.00 | 87 | 1003.7 |
| 20260505174044 | 55 | 202 | 0.0 | 0.0 | 0.04 | 0.36 | 0.00 | 87 | 1003.8 |
| 20260505173543 | 55 | 180 | 0.0 | 0.0 | 0.04 | 0.36 | 0.00 | 87 | 1003.8 |
| 20260505173043 | 55 | 180 | 0.0 | 0.0 | 0.04 | 0.36 | 0.00 | 87 | 1003.9 |
| 20260505172543 | 55 | 180 | 0.0 | 0.0 | 0.02 | 0.34 | 0.00 | 87 | 1003.8 |
| 20260505172042 | 55 | 180 | 0.0 | 0.0 | 0.02 | 0.34 | 0.00 | 87 | 1003.8 |
| 20260505171542 | 55 | 180 | 0.0 | 0.0 | 0.02 | 0.34 | 0.00 | 87 | 1003.9 |
| 20260505171042 | 55 | 180 | 0.0 | 0.0 | 0.02 | 0.34 | 0.00 | 86 | 1003.8 |
| 20260505170542 | 55 | 202 | 0.0 | 0.0 | 0.02 | 0.34 | 0.00 | 86 | 1003.8 |
| 20260505170041 | 55 | 180 | 0.0 | 0.0 | 0.02 | 0.34 | 0.00 | 86 | 1003.8 |
| 20260505165541 | 55 | 180 | 0.0 | 0.0 | 0.00 | 0.34 | 0.00 | 86 | 1003.8 |
| 20260505165041 | 56 | 180 | 0.0 | 0.0 | 0.00 | 0.34 | 0.00 | 86 | 1003.8 |
| 20260505164541 | 56 | 180 | 0.0 | 0.0 | 0.00 | 0.34 | 0.00 | 86 | 1003.9 |
| 20260505164040 | 56 | 180 | 0.0 | 0.0 | 0.00 | 0.34 | 0.00 | 86 | 1004.0 |
| 20260505163040 | 56 | 180 | 0.0 | 0.0 | 0.00 | 0.34 | 0.00 | 86 | 1003.9 |
| 20260505162539 | 56 | 180 | 0.0 | 0.0 | 0.00 | 0.34 | 0.00 | 87 | 1004.0 |
| 20260505162039 | 56 | 157 | 0.0 | 0.0 | 0.00 | 0.34 | 0.00 | 87 | 1004.0 |
| 20260505161539 | 56 | 157 | 0.0 | 0.0 | 0.02 | 0.34 | 0.00 | 87 | 1003.9 |
| 20260505160538 | 56 | 180 | 0.0 | 0.0 | 0.02 | 0.34 | 0.00 | 87 | 1003.9 |
| 20260505153036 | 55 | 202 | 0.0 | 0.0 | 0.06 | 0.36 | 0.00 | 88 | 1004.2 |
| 20260505152541 | 55 | 157 | 0.0 | 0.0 | 0.08 | 0.36 | 0.00 | 88 | 1004.2 |
| 20260505152536 | 55 | 157 | 0.0 | 0.0 | 0.08 | 0.36 | 0.00 | 88 | 1004.2 |
| 20260505152036 | 55 | 180 | 0.0 | 0.0 | 0.08 | 0.36 | 0.00 | 88 | 1004.2 |
| 20260505151535 | 55 | 180 | 0.0 | 0.0 | 0.06 | 0.34 | 0.00 | 88 | 1004.2 |
| 20260505151035 | 55 | 180 | 0.0 | 0.0 | 0.08 | 0.34 | 0.00 | 88 | 1004.3 |
| 20260505150535 | 55 | 202 | 0.0 | 0.0 | 0.08 | 0.34 | 0.00 | 87 | 1004.3 |
| 20260505140531 | 56 | 180 | 0.0 | 0.0 | 0.18 | 0.26 | 0.00 | 85 | 1004.6 |
| 20260505125027 | 60 | 135 | 0.0 | 0.0 | 0.00 | 0.06 | 0.00 | 75 | 1004.6 |
| 20260505124527 | 60 | 135 | 0.0 | 0.0 | 0.00 | 0.06 | 0.00 | 74 | 1004.6 |
| 20260505124027 | 60 | 135 | 0.0 | 0.0 | 0.00 | 0.06 | 0.00 | 74 | 1004.7 |
| 20260505123526 | 60 | 135 | 0.0 | 0.0 | 0.00 | 0.06 | 0.00 | 73 | 1004.8 |
| 20260505123026 | 61 | 135 | 0.0 | 0.0 | 0.00 | 0.06 | 0.00 | 73 | 1004.8 |
| 20260505122526 | 61 | 135 | 0.0 | 0.0 | 0.00 | 0.06 | 0.00 | 72 | 1004.8 |
| 20260505122026 | 62 | 135 | 0.0 | 0.0 | 0.00 | 0.06 | 0.00 | 71 | 1004.8 |
| 20260505121525 | 62 | 135 | 0.0 | 0.0 | 0.00 | 0.06 | 0.00 | 70 | 1004.9 |
| 20260505121025 | 63 | 135 | 0.0 | 0.0 | 0.00 | 0.06 | 0.00 | 69 | 1004.9 |
| 20260505120525 | 64 | 135 | 0.0 | 0.0 | 0.00 | 0.06 | 0.00 | 68 | 1004.9 |
| 20260505120024 | 64 | 135 | 0.0 | 0.0 | 0.00 | 0.06 | 0.00 | 68 | 1004.9 |
| 20260505115024 | 65 | 135 | 0.0 | 0.0 | 0.00 | 0.06 | 0.00 | 70 | 1005.0 |
| 20260505114524 | 64 | 135 | 0.0 | 0.0 | 0.00 | 0.06 | 0.00 | 70 | 1005.0 |
| 20260505114023 | 64 | 157 | 0.0 | 0.0 | 0.00 | 0.06 | 0.00 | 70 | 1005.1 |
| 20260505113523 | 64 | 157 | 0.0 | 0.0 | 0.00 | 0.06 | 0.00 | 72 | 1005.1 |
| 20260505112522 | 62 | 157 | 0.0 | 0.0 | 0.00 | 0.06 | 0.00 | 72 | 1005.0 |
| 20260505112022 | 62 | 157 | 0.0 | 0.0 | 0.00 | 0.06 | 0.00 | 72 | 1005.3 |
| 20260505111022 | 62 | 157 | 0.0 | 0.0 | 0.00 | 0.06 | 0.00 | 71 | 1005.3 |
| 20260505110521 | 62 | 157 | 0.0 | 0.0 | 0.00 | 0.06 | 0.00 | 71 | 1005.2 |